CAPE
858 881 1059 265 27 33 34 7 8 4 2 10 77 535 1187 1466 1642 1786 1832 1845 1854 2129 1920 1920 2090 1926 1947 2036 1995 1876 1608 1563 2014 2016 1694 1651 1413 1611 1725 2369 2258 2336 2150 1991 2233 2465 2003 1858 2106 2475 2560 2581 2580 2918 3011 3214 3133 3231 3084 3285 3916 3976 2896
852 785 997 914 208 65 60 31 47 73 1 24 72 680 1292 1545 1762 1920 1976 1982 2075 2262 2031 2013 2160 1990 1916 1938 1894 1748 1697 1282 1701 1973 1743 2013 2230 1882 1766 2346 2360 2295 2500 2103 2200 2266 2263 2334 2043 2458 2702 3130 2715 3172 3287 3089 3319 3409 3480 3332 3805 4050 3466
880 822 1135 1249 803 99 103 86 70 73 121 154 113 794 1342 1574 1810 1960 2099 2086 2278 2474 2127 2120 2209 2114 1922 1914 1812 1678 1713 1501 1586 1691 1666 1916 2127 1911 1976 2302 2323 2350 2368 2261 2099 2095 2199 2530 2285 2473 2807 3169 3054 3059 3628 3495 3580 3630 3768 3553 3774 4154 3694
928 991 1349 1357 1411 596 184 117 95 138 175 236 188 790 1253 1558 1783 1946 2166 2116 2358 2659 2286 2132 2234 2144 1987 1915 1789 1760 1523 1606 1578 1560 1494 1847 2100 1855 2112 2248 2312 2387 2413 2316 2107 1933 2327 2315 2389 2447 3800 2987 3218 3122 3342 3828 3764 3740 3768 3571 3495 3787 3665
943 1020 1279 1463 1409 1531 761 328 261 248 230 263 344 884 1198 1468 1655 1866 2130 2160 2305 2662 2482 2152 2187 2149 2018 1939 1755 1809 1525 1678 1688 1616 1420 1701 2096 1941 2078 2250 2385 2300 2310 2316 2371 2339 2330 2184 2246 2328 2950 3002 3042 3245 3237 3430 3639 3524 3249 3294 3324 3165 3213
942 975 1069 1294 1344 1346 1633 534 358 323 250 307 420 880 1216 1384 1526 1716 1978 2242 2256 2529 2609 2305 2128 2160 2001 1992 1721 1775 1692 1449 1751 1776 1491 1680 1878 1979 2014 2121 2326 2278 2220 2201 2350 2380 2276 2163 2077 2100 2245 2639 2905 3051 3195 3254 3292 3209 3031 3121 3062 3010 3078
954 932 929 1024 1170 1177 1429 1630 349 480 381 417 492 856 1239 1389 1566 1692 1851 2108 2232 2360 2516 2465 2135 2138 1989 1951 1755 1673 1701 1419 1568 1806 1542 1743 1771 1842 1930 2006 2038 2152 2208 2212 2056 2004 2275 2159 2029 2069 2202 2236 2467 2840 2979 3072 3184 3188 3059 2962 2928 2967 2990
822 868 838 866 1052 1112 1429 1591 1087 270 467 515 473 574 1137 1338 1597 1669 1830 1945 2103 2192 2300 2420 2190 2111 1991 1898 1747 1562 1636 1431 1576 1634 1601 1519 1595 1752 1778 1877 1963 1973 1922 1768 1702 1614 1760 2085 2100 2208 2426 2304 2379 2505 2939 3001 3034 3110 3014 3007 2977 2904 2843
588 802 1007 845 1166 993 1000 1330 1463 658 506 458 562 665 981 1298 1561 1624 1810 1886 1979 2074 2114 2227 2225 2131 2007 1876 1768 1590 1540 1497 1495 1522 1621 1553 1475 1505 1622 1688 1914 1899 1711 1704 1665 1689 1500 1685 1931 2100 2413 2452 2347 2424 2658 2892 2934 2925 2875 2825 2878 2901 2886
1030 776 791 1296 1475 1019 899 1024 1282 867 469 350 411 745 905 1291 1494 1622 1824 1878 1893 2062 2049 2058 2083 2069 2031 1866 1720 1626 1578 1512 1485 1459 1443 1490 1603 1444 1384 1579 1695 1714 1665 1665 1687 1751 1662 1475 1626 1663 1842 2131 2315 2341 2274 2260 2448 2577 2657 2683 2695 2732 2735
1235 1171 930 1334 1506 1453 1311 1148 1220 1061 471 169 320 683 839 1246 1425 1590 1788 1898 1836 1991 2081 2047 1965 1899 1970 1875 1696 1718 1695 1554 1489 1430 1374 1418 1514 1680 1625 1486 1492 1736 1683 1771 1705 1697 1671 1582 1642 1728 1715 1767 1921 2054 2041 2055 2146 2325 2481 2514 2567 2683 2728
1049 1019 894 1214 1327 1505 1498 1397 1222 1004 625 378 336 596 770 1114 1366 1517 1709 1861 1830 1851 2046 2075 2012 1926 1848 1859 1740 1722 1802 1755 1675 1441 1340 1374 1466 1481 1664 1641 1511 1671 1789 1783 1695 1568 1631 1661 1609 1770 1840 1789 1776 1834 2091 2184 2152 2171 2265 2314 2300 2406 2537
1225 851 821 1115 1344 1403 1230 1172 1121 937 777 436 1215 1477 1519 1046 1247 1400 1545 1740 1829 1864 1935 2027 2074 2081 1966 1937 1902 1758 1870 1916 1819 1608 1396 1290 1331 1302 1358 1509 1298 1256 1446 1601 1574 1467 1570 1642 1643 2147 2061 1987 1976 2024 2046 2150 2218 2149 2039 2068 2107 2164 2267
1219 1282 1180 798 873 1169 1192 863 680 910 674 752 1025 1175 1327 1306 1130 1228 1320 1479 1752 1710 1739 1918 2015 2056 2140 2153 2022 1856 1848 1902 1791 1987 1653 1352 1257 1218 1147 1143 1233 1141 1142 1222 1280 1357 1544 1568 1510 1931 2270 2224 2131 2143 2137 2062 1974 2074 2139 2167 2295 2301 2314
1222 1107 1154 1225 1188 875 813 776 817 706 710 541 791 858 1173 1359 1150 928 1212 1524 1651 1645 1662 1860 1932 1869 1876 1939 1911 1842 1758 1364 1670 1956 1982 2192 1289 1253 1206 1175 1089 982 1081 1194 1154 1162 1192 1214 1367 1485 2064 2152 2145 2111 2130 2160 2103 2215 2296 2491 2553 2432 2354
902 1021 1037 1115 894 690 583 560 622 706 736 755 858 1015 1136 1302 1203 1098 1177 1260 1227 1192 1621 1651 1704 1535 1376 1395 1602 1496 1499 1374 1674 1805 2386 2119 2089 2066 2013 1775 1432 780 813 1303 1323 1260 1266 1307 1364 1452 1713 1883 1886 1852 1909 2234 2334 2358 2330 2337 2511 2626 2555
583 634 856 920 865 408 514 716 891 821 703 782 967 1095 981 1007 1089 1094 1292 1168 1096 1185 1202 1268 1443 1511 1258 1069 984 1144 1305 1656 2012 2128 2148 2263 2266 2370 2450 2214 1759 1121 891 1176 1397 1387 1450 1458 1441 1508 1589 1690 1771 1820 1866 1981 2058 2229 2237 2096 1914 2134 2190
564 720 731 707 723 589 544 540 705 614 651 756 881 974 892 798 806 921 750 749 975 1061 1005 1036 1276 1770 1688 1418 1102 927 1195 1422 1906 2126 2032 2055 2193 2242 2352 2173 1838 1364 1140 1281 1418 1513 1544 1527 1413 1411 1394 1410 1538 1613 1781 1888 1911 1956 1969 1794 1648 1738 1878
371 441 559 524 494 571 464 535 537 390 565 776 889 920 975 1001 894 839 879 844 889 791 766 896 1214 1451 1770 1790 1713 1346 1124 1041 1033 1409 2076 2029 1862 1951 2018 2177 2137 2071 1631 1152 1295 1397 1460 1434 1380 1350 1302 1320 1315 1413 1568 1776 1915 1956 1881 1665 1504 1419 1557
429 388 382 348 514 583 488 560 602 806 550 634 938 914 889 988 914 786 1049 1147 1112 875 852 684 772 1204 1467 1643 1676 1555 1488 1260 1070 1200 1384 1887 2013 1822 1728 1688 1832 2077 2031 1819 1440 1208 1315 1271 1299 1306 1340 1334 1287 1192 1309 1442 1542 1552 1540 1491 1309 1154 1221
364 414 394 317 363 504 688 584 508 544 608 614 854 966 1030 1045 1080 1004 1094 1139 1152 1279 1220 1047 1144 1189 1210 1279 1388 1451 1430 1554 1616 1570 1592 1728 1991 2099 2016 1717 1477 1576 1740 2066 1843 1396 970 1057 1064 1043 1180 1159 1151 1040 924 914 988 1061 1099 1114 1009 935 1004
255 211 259 261 283 292 397 456 555 548 618 601 627 848 1120 1175 1195 1059 1073 1176 1087 914 765 983 1048 1099 995 1006 808 870 1064 1303 1518 1542 1542 1610 1613 1659 1771 1924 1664 1463 1758 1742 1617 1352 1170 890 693 910 1097 1016 849 899 791 608 659 738 749 636 623 754 924
0 0 0 0 3 160 208 301 358 404 496 600 633 618 796 913 944 920 862 834 832 730 593 556 823 854 814 834 774 762 770 961 1215 1380 1464 1383 1298 1164 1147 1143 1335 1452 1355 1477 1482 1429 1370 1205 1128 1015 946 963 1174 1034 893 873 850 813 755 671 578 524 631
206 214 0 0 0 0 91 175 213 228 212 280 347 395 508 558 517 612 594 546 527 518 514 466 609 717 728 667 650 577 636 692 762 907 1085 1105 953 931 877 847 821 791 747 891 1156 1352 1399 1321 1207 1159 994 1149 1269 1231 1205 1105 1014 957 914 875 840 807 787
196 177 150 0 0 0 0 0 162 155 121 101 60 10 0 0 0 326 397 385 381 387 422 509 591 777 857 850 753 635 586 516 479 483 543 590 615 623 636 660 684 656 649 689 713 619 693 900 1177 1256 1159 1123 1254 1161 1180 1094 1051 1029 1016 972 967 938 1044
81 0 23 2 0 0 0 0 0 0 5 0 0 0 0 0 116 249 290 310 330 342 381 442 482 520 575 692 712 676 641 549 511 498 545 570 637 664 690 675 662 662 633 650 662 664 718 838 822 738 756 848 928 952 842 838 792 789 782 817 808 883 1039
0 0 0 0 0 0 0 0 0 0 0 0 0 0 0 0 72 87 80 242 290 361 427 476 452 435 354 353 408 429 447 428 428 548 566 541 572 615 665 680 618 626 652 671 662 652 622 645 772 860 848 770 639 709 763 754 760 723 714 708 727 722 723
0 0 0 0 0 0 0 0 0 0 0 0 0 0 0 0 0 0 0 0 93 264 315 370 381 356 348 356 351 352 355 379 390 271 262 324 365 404 361 400 437 404 397 375 362 443 543 518 636 742 782 663 652 558 550 599 577 595 652 698 700 668 625
0 0 0 0 0 0 0 0 0 0 0 0 0 45 0 0 0 0 0 0 0 0 160 291 286 262 248 250 247 224 202 233 315 330 274 274 280 383 447 446 411 350 338 303 340 335 428 393 349 549 533 536 519 461 436 428 392 344 385 444 542 590 616
0 0 0 0 0 0 0 0 0 0 0 0 0 0 0 0 0 0 0 0 0 0 15 138 195 185 86 220 213 205 203 191 161 199 234 270 279 312 346 337 339 336 298 252 232 308 330 351 343 356 420 426 384 355 334 305 286 234 254 311 403 466 560
0 0 0 0 0 0 0 0 0 0 0 0 0 0 0 0 0 0 0 0 0 0 0 0 0 28 94 118 0 0 258 268 212 202 220 229 233 236 244 305 345 358 326 316 304 272 177 250 287 284 234 89 161 178 163 137 0 0 15 83 223 355 524
0 0 0 0 0 0 0 0 0 0 0 0 0 0 0 0 0 0 0 0 0 0 0 0 0 0 0 0 0 0 32 77 142 192 217 164 202 218 240 269 311 328 318 269 274 262 14 2 192 162 126 29 28 15 5 8 0 0 0 10 0 222 426
0 0 0 0 0 0 0 0 0 0 0 0 0 0 0 0 0 0 0 0 0 0 0 0 0 0 0 0 0 0 0 0 0 0 0 0 179 224 214 226 245 262 136 200 270 217 136 51 21 15 11 15 19 0 9 24 54 56 163 147 66 0 139
0 0 0 0 0 0 0 0 0 0 0 0 0 0 0 0 0 0 0 0 0 0 0 0 0 0 0 0 0 0 0 0 0 0 0 0 14 0 127 189 0 0 0 99 0 96 139 88 21 44 47 15 1 0 0 15 108 143 144 144 140 97 131
0 0 0 0 0 0 0 0 0 0 0 0 0 0 0 0 0 0 0 0 0 0 0 0 0 0 0 0 0 0 0 0 0 0 0 0 0 0 0 0 0 0 0 8 58 0 12 47 37 13 2 3 6 6 3 4 4 6 49 176 209 194 193
0 0 0 0 0 0 0 0 0 0 0 0 0 0 0 0 0 0 0 0 0 0 0 0 0 0 0 0 0 0 0 0 0 0 0 0 0 0 0 0 0 41 0 33 1 7 3 0 0 0 1 3 6 5 6 3 0 11 76 120 153 174 173
0 0 0 0 0 0 0 0 0 0 0 0 0 0 0 0 0 0 0 0 0 0 0 0 0 0 0 0 0 0 0 0 0 0 0 0 0 0 0 0 0 0 0 0 0 0 0 0 0 0 0 0 0 0 0 0 0 0 0 0 100 148 193
0 0 0 0 0 0 0 0 0 0 0 0 0 0 0 0 0 0 0 0 0 0 0 0 0 0 0 0 0 0 0 0 0 0 0 0 0 0 0 0 0 0 0 0 0 0 0 0 0 0 0 0 0 0 0 0 0 0 0 0 0 0 0
Wind_Speed
16 28 23 17 nan nan nan nan nan nan nan nan nan 11 12 11 10 10 9 8 6 6 6 7 7 7 4 4 4 5 5 5 5 4 4 4 4 4 4 5 5 5 5 5 5 4 4 5 4 4 5 5 4 4 3 3 2 1 3 4 5 6 6
12 23 20 17 16 nan nan nan nan nan nan nan nan 12 13 13 11 11 10 8 7 7 6 6 7 6 5 4 5 6 6 4 4 5 5 4 5 4 3 3 3 4 5 5 5 6 6 5 5 5 4 5 5 4 3 3 2 2 3 3 2 4 6
1 13 13 14 15 nan 12 nan nan nan 10 11 10 11 13 14 12 12 12 10 8 8 8 7 7 7 6 5 6 6 6 5 5 4 3 3 3 3 3 3 3 4 5 6 7 7 7 6 6 5 4 4 5 5 4 4 3 2 2 2 3 3 4
5 2 5 9 14 17 15 14 nan 11 10 10 9 10 14 16 15 14 14 12 11 9 9 8 9 8 8 6 6 7 6 6 4 4 3 4 4 4 4 4 3 4 6 6 6 6 6 6 5 6 4 5 5 5 4 4 4 4 3 3 3 3 3
4 3 4 7 11 18 20 17 14 11 10 10 10 10 14 17 17 16 14 13 13 10 9 9 9 9 9 9 9 8 7 7 6 5 5 6 5 5 5 4 3 2 3 5 6 6 6 5 5 4 4 5 5 5 4 4 4 4 4 4 3 3 2
2 2 4 7 9 14 20 21 15 12 11 11 12 13 15 17 18 18 16 15 14 12 11 10 10 10 10 10 10 10 11 10 10 8 7 6 6 6 5 5 4 4 5 4 6 6 6 5 5 4 4 4 4 4 4 4 4 4 4 4 3 3 3
3 2 3 7 9 13 19 22 20 18 16 14 15 16 18 18 19 19 18 15 16 16 13 12 11 11 11 12 11 12 11 11 12 11 10 9 8 8 7 7 7 6 6 7 6 7 7 6 5 5 5 4 4 4 5 5 4 4 4 4 4 4 4
12 10 9 10 12 20 17 15 17 22 25 26 22 19 19 19 22 22 19 16 16 16 15 14 13 14 13 13 12 12 12 11 12 13 13 11 10 9 9 9 9 9 10 8 7 8 8 8 8 7 6 5 5 5 5 5 5 5 6 5 4 4 4
22 18 12 4 8 11 13 14 16 20 23 25 25 22 20 21 21 23 22 19 16 16 14 14 15 16 16 15 14 13 13 13 12 12 13 12 12 10 10 10 10 11 10 9 9 10 10 9 9 10 9 8 7 7 7 6 6 6 6 5 5 4 4
17 12 10 14 14 14 15 19 21 24 25 25 24 27 21 20 20 22 24 21 17 16 15 15 17 18 17 17 17 16 15 15 14 12 12 13 14 11 11 12 11 13 12 11 12 11 11 11 11 11 10 9 9 8 8 8 7 7 6 5 5 5 4
22 18 22 22 18 17 18 20 21 21 23 23 23 23 23 19 17 20 24 23 18 17 18 17 18 18 17 17 18 18 17 16 15 14 13 14 16 14 13 13 13 14 13 13 13 13 13 13 14 13 12 10 10 10 10 10 9 8 8 7 8 7 6
28 30 30 29 27 25 22 22 25 25 24 25 25 25 24 20 16 18 24 24 21 21 20 18 20 19 17 17 18 18 17 17 16 15 15 15 17 16 15 15 14 14 14 14 13 13 14 14 15 14 13 12 12 12 12 12 11 10 9 9 9 8 7
29 32 34 37 36 34 30 26 23 24 28 31 34 36 33 27 19 20 25 27 25 22 22 21 22 21 19 18 18 19 17 16 17 17 16 16 17 18 18 17 16 14 13 14 14 14 14 14 15 16 16 14 15 14 14 13 13 12 11 11 11 10 10
31 30 31 30 32 34 38 38 36 33 31 33 37 42 43 47 46 40 36 36 36 35 32 29 23 22 20 19 20 25 27 26 24 23 17 15 16 16 17 17 16 15 14 13 13 14 14 14 15 17 18 17 16 15 15 15 14 14 13 13 13 13 13
32 33 33 34 34 35 37 37 36 35 37 37 38 41 43 45 47 46 45 47 48 46 42 40 39 32 25 26 27 24 22 25 25 26 27 20 15 15 16 17 17 16 15 15 14 15 15 15 16 18 18 18 18 17 17 16 15 17 17 16 15 14 14
32 33 33 34 32 32 34 37 36 33 34 32 33 33 37 39 43 42 40 39 40 44 45 40 37 36 33 26 28 27 26 27 30 31 29 26 24 22 21 22 21 19 17 16 16 16 18 18 18 19 19 19 19 18 18 19 21 19 19 19 19 18 17
28 27 26 32 34 33 33 35 33 32 33 33 33 33 37 40 39 40 40 38 38 41 41 39 36 36 35 27 26 29 27 29 31 31 31 27 26 26 24 23 24 24 21 19 17 17 19 20 20 20 20 20 19 18 21 22 21 19 22 22 20 20 19
33 30 28 30 33 33 34 35 34 35 33 33 34 38 41 43 42 41 39 38 38 39 41 41 38 37 37 30 26 30 31 32 33 34 31 29 27 27 26 24 24 24 23 22 21 19 19 19 19 20 20 20 19 20 21 22 21 24 24 23 22 20 20
34 33 30 29 31 34 35 34 33 32 30 29 31 35 39 42 44 43 40 39 37 37 40 40 36 32 31 26 24 28 31 32 34 35 33 30 28 27 26 27 27 26 25 22 21 22 21 20 21 20 21 21 21 20 22 22 21 22 23 24 24 22 21
34 33 33 31 32 33 33 32 33 35 34 31 29 33 39 44 43 41 40 39 38 38 38 38 31 26 25 22 20 25 29 31 35 36 35 33 30 28 28 27 26 25 26 25 25 24 24 24 24 23 21 20 21 21 21 21 20 21 20 21 22 23 23
33 32 32 32 34 35 34 34 35 35 34 34 32 29 32 37 37 37 39 38 37 36 38 37 29 23 22 20 20 26 28 27 30 32 34 34 32 31 29 28 28 26 26 27 29 30 30 29 27 25 23 22 22 22 22 23 25 21 19 19 20 23 24
35 36 35 32 33 34 34 34 37 38 36 34 35 31 28 30 32 37 39 37 33 32 34 33 30 29 27 24 23 25 25 26 27 28 31 33 36 36 33 31 28 29 33 33 29 26 25 25 27 27 26 25 24 24 25 27 26 24 22 21 21 25 25
nan nan nan nan nan 35 34 33 33 35 35 36 37 34 31 31 33 36 36 36 32 31 32 32 32 30 27 25 24 27 27 27 26 25 24 25 28 30 30 30 30 34 36 29 27 28 30 28 28 28 27 24 24 26 27 28 28 27 25 24 25 28 27
34 34 nan nan nan nan nan 36 35 35 34 36 36 34 32 33 36 37 37 36 33 32 30 30 28 25 24 22 22 24 24 24 23 22 21 21 22 23 24 26 29 33 34 26 25 26 26 29 29 30 30 30 29 30 30 30 33 32 29 27 26 27 30
40 36 34 nan nan nan nan nan 36 34 34 36 nan nan nan nan nan 34 35 36 35 34 33 31 29 25 23 23 23 22 22 21 21 21 21 21 23 24 23 22 24 28 31 30 29 29 27 26 29 31 32 32 34 30 32 34 36 37 34 31 30 32 34
nan nan nan nan nan nan nan nan nan nan nan nan nan nan nan nan 35 34 34 34 33 35 34 33 30 26 22 21 23 24 24 23 23 22 23 23 25 25 23 23 23 24 23 21 20 20 22 25 28 30 31 33 33 31 38 40 38 38 38 35 36 37 40
nan nan nan nan nan nan nan nan nan nan nan nan nan nan nan nan nan nan nan 33 34 34 34 33 33 31 26 25 28 28 27 27 27 26 27 26 24 22 22 22 21 23 22 20 21 21 20 21 23 25 26 26 29 32 35 35 36 37 38 36 34 41 44
nan nan nan nan nan nan nan nan nan nan nan nan nan nan nan nan nan nan nan nan nan 31 30 32 34 35 33 32 32 32 31 31 32 32 31 31 28 26 29 29 26 26 26 24 26 27 25 23 26 29 29 30 30 29 29 31 34 31 33 33 32 31 34
nan nan nan nan nan nan nan nan nan nan nan nan nan nan nan nan nan nan nan nan nan nan 33 33 35 37 38 36 36 35 35 36 37 37 35 35 34 33 34 34 37 34 30 29 31 31 31 32 33 33 32 33 32 30 30 30 31 33 31 32 32 32 33
nan nan nan nan nan nan nan nan nan nan nan nan nan nan nan nan nan nan nan nan nan nan nan 40 41 43 nan 40 37 36 37 37 38 39 38 37 36 37 38 38 36 36 37 34 31 33 33 33 33 34 34 33 32 31 30 31 33 36 39 36 38 34 31
nan nan nan nan nan nan nan nan nan nan nan nan nan nan nan nan nan nan nan nan nan nan nan nan nan nan nan 44 nan nan 39 39 40 40 40 40 40 40 40 40 39 40 37 37 35 33 34 33 33 35 34 nan 33 34 34 33 nan nan nan nan 36 33 31
nan nan nan nan nan nan nan nan nan nan nan nan nan nan nan nan nan nan nan nan nan nan nan nan nan nan nan nan nan nan nan nan 43 43 42 41 42 43 42 42 42 41 39 38 39 37 nan nan 35 36 37 nan nan nan nan nan nan nan nan nan nan 28 25
nan nan nan nan nan nan nan nan nan nan nan nan nan nan nan nan nan nan nan nan nan nan nan nan nan nan nan nan nan nan nan nan nan nan nan nan 41 42 41 41 42 43 41 39 40 41 39 nan nan nan nan nan nan nan nan nan nan nan 34 34 nan nan 29
nan nan nan nan nan nan nan nan nan nan nan nan nan nan nan nan nan nan nan nan nan nan nan nan nan nan nan nan nan nan nan nan nan nan nan nan nan nan 42 42 nan nan nan nan nan nan 43 nan nan nan nan nan nan nan nan nan 40 39 38 38 37 nan 39
nan nan nan nan nan nan nan nan nan nan nan nan nan nan nan nan nan nan nan nan nan nan nan nan nan nan nan nan nan nan nan nan nan nan nan nan nan nan nan nan nan nan nan nan nan nan nan nan nan nan nan nan nan nan nan nan nan nan nan 40 40 40 42
nan nan nan nan nan nan nan nan nan nan nan nan nan nan nan nan nan nan nan nan nan nan nan nan nan nan nan nan nan nan nan nan nan nan nan nan nan nan nan nan nan nan nan nan nan nan nan nan nan nan nan nan nan nan nan nan nan nan nan 41 43 43 45
nan nan nan nan nan nan nan nan nan nan nan nan nan nan nan nan nan nan nan nan nan nan nan nan nan nan nan nan nan nan nan nan nan nan nan nan nan nan nan nan nan nan nan nan nan nan nan nan nan nan nan nan nan nan nan nan nan nan nan nan nan 44 45
nan nan nan nan nan nan nan nan nan nan nan nan nan nan nan nan nan nan nan nan nan nan nan nan nan nan nan nan nan nan nan nan nan nan nan nan nan nan nan nan nan nan nan nan nan nan nan nan nan nan nan nan nan nan nan nan nan nan nan nan nan nan nan
Wind_Direction
239 211 205 208 nan nan nan nan nan nan nan nan nan 278 284 282 279 278 277 276 279 253 231 233 233 223 218 202 203 199 198 183 169 168 164 164 170 185 178 174 196 188 187 189 176 181 169 176 178 160 159 156 162 166 162 162 177 152 154 175 164 156 147
239 204 199 205 209 nan nan nan nan nan nan nan nan 275 278 282 273 274 276 277 280 276 257 243 239 231 224 200 197 200 200 187 175 170 170 168 172 178 176 172 198 192 183 183 191 185 198 185 196 192 181 175 170 176 180 177 195 210 192 191 196 157 174
251 190 198 209 221 nan 241 nan nan nan 245 241 255 269 278 279 277 276 275 275 276 268 256 251 243 238 223 212 205 197 198 201 192 188 174 154 157 168 168 175 190 192 176 188 191 189 193 197 198 204 204 194 185 183 192 197 196 207 188 194 207 208 197
34 135 207 223 228 224 227 249 nan 249 246 246 252 268 271 277 273 267 270 274 275 268 267 256 250 244 234 224 214 208 207 208 213 203 185 179 175 184 191 182 183 188 189 185 184 186 191 203 203 208 214 207 192 192 199 206 204 199 181 189 192 209 221
3 354 262 244 241 231 221 226 247 248 255 250 250 253 264 274 272 265 260 262 271 274 270 268 250 247 240 237 225 217 223 229 225 221 208 201 204 199 199 192 190 199 200 198 189 184 196 207 207 218 219 220 207 201 200 207 207 204 196 198 194 205 212
13 347 276 254 246 232 219 215 229 252 256 258 258 251 255 266 266 274 264 261 257 256 255 255 252 248 247 244 239 233 229 231 236 238 233 230 230 225 214 204 209 213 228 220 211 203 214 220 219 223 231 233 236 224 214 216 213 223 217 216 213 219 232
194 181 221 233 230 224 217 213 221 222 230 253 255 253 255 256 266 268 262 261 260 260 255 256 254 250 245 243 245 247 242 240 241 247 245 240 239 234 224 218 216 219 224 228 222 223 222 226 230 228 227 233 238 241 233 230 226 224 232 236 222 222 228
212 201 197 210 222 224 219 226 238 243 227 223 227 258 265 263 261 268 269 267 262 258 258 258 254 251 246 244 247 252 249 247 240 243 244 244 238 234 230 227 227 225 227 233 229 234 232 229 224 225 228 228 231 234 236 239 241 229 235 234 230 227 236
243 227 218 259 264 255 229 227 238 239 238 243 235 231 268 268 268 271 272 272 266 265 260 256 256 252 249 248 247 249 251 248 242 242 245 246 239 236 235 231 232 234 235 232 230 229 235 232 226 227 230 229 232 236 235 241 244 240 240 235 236 240 240
260 260 265 246 254 252 244 239 236 238 241 241 240 250 245 257 267 270 268 270 269 272 267 257 250 250 251 249 245 245 246 245 241 242 241 243 239 243 242 237 235 237 239 238 233 231 229 233 232 230 231 234 235 238 239 243 244 248 251 255 250 246 246
219 231 232 238 250 248 242 245 245 250 253 253 250 253 251 245 258 268 265 266 267 265 265 258 252 251 251 250 246 242 243 244 243 240 236 235 235 240 245 244 239 238 241 241 236 234 234 231 234 235 236 240 240 240 244 249 253 255 255 251 251 256 255
219 215 214 218 221 229 236 232 231 237 240 240 246 251 243 233 241 253 256 258 255 255 253 251 248 252 250 245 246 241 242 242 242 241 238 234 233 237 239 240 238 237 238 245 247 241 239 241 240 242 243 243 244 245 245 248 254 262 263 263 258 258 257
227 231 225 217 212 211 215 226 238 233 231 230 227 225 223 217 223 240 246 248 246 247 250 246 244 247 245 244 248 245 247 247 246 245 242 240 238 235 237 238 237 238 239 242 249 252 249 248 250 248 251 250 249 249 251 253 256 260 262 264 267 272 271
222 229 231 233 229 222 215 208 209 221 230 230 231 234 231 222 213 209 217 226 226 224 225 228 241 246 244 246 246 240 235 227 228 228 231 245 245 242 240 241 243 242 240 242 247 251 255 255 256 255 254 256 255 255 255 257 257 259 261 261 265 268 271
220 226 226 226 228 233 229 225 217 222 226 227 234 245 246 240 234 230 226 222 217 215 218 225 224 221 234 245 246 249 242 232 232 233 223 219 238 243 241 239 240 242 242 239 239 242 248 248 251 254 253 252 254 255 255 258 258 256 256 255 251 258 265
221 224 224 226 226 227 232 231 232 230 234 238 236 240 244 246 248 249 246 241 234 227 219 213 223 235 221 227 247 246 242 238 237 237 230 222 229 232 237 236 235 242 247 245 241 239 241 244 248 253 255 253 251 253 255 255 255 262 274 264 256 253 251
237 240 233 228 228 234 233 236 234 238 238 233 233 225 227 227 238 248 249 246 243 237 231 228 224 221 231 218 225 241 240 243 244 241 237 231 230 231 230 231 232 234 240 247 252 249 243 244 245 248 251 255 256 255 256 257 257 271 269 263 253 251 255
243 242 238 232 235 239 240 241 245 244 238 232 233 236 230 226 228 234 236 241 245 242 238 234 227 221 218 219 216 234 238 238 240 240 240 234 229 228 227 225 231 237 237 241 246 247 248 250 251 250 251 252 253 254 255 257 260 272 272 269 267 264 261
243 241 237 237 241 244 243 242 240 243 248 243 237 241 240 235 230 227 229 232 239 242 241 241 241 233 226 217 214 227 236 238 240 242 241 239 237 235 231 227 224 229 234 238 235 241 247 250 252 251 251 255 257 254 252 253 262 274 275 273 269 267 266
240 238 239 239 242 244 244 244 246 249 249 247 242 238 236 233 232 229 228 232 233 237 238 241 238 235 236 233 220 223 228 231 234 237 239 237 236 237 238 236 234 231 227 229 229 232 238 244 248 248 251 253 254 254 251 251 257 270 272 272 275 276 271
235 231 231 234 238 242 242 240 244 250 252 250 247 243 236 231 233 233 233 233 234 236 239 236 236 234 237 242 228 219 221 227 232 235 237 237 234 235 235 236 233 239 239 237 234 229 225 224 232 240 246 250 252 254 256 252 254 257 260 267 275 276 272
242 237 234 231 234 238 243 246 247 246 246 245 247 247 242 234 231 234 234 234 236 233 232 231 231 229 227 228 225 223 221 229 235 237 238 238 237 238 237 237 241 240 240 242 246 249 253 254 253 248 237 234 245 255 258 254 252 255 261 267 271 275 271
nan nan nan nan nan 240 242 244 245 248 249 248 246 245 241 237 237 238 236 235 232 231 229 228 227 226 226 225 223 221 221 225 230 233 238 244 243 243 246 245 238 240 241 235 243 245 246 250 255 260 262 259 254 256 257 258 258 256 256 261 269 275 276
249 250 nan nan nan nan nan 248 249 246 243 239 237 238 239 235 233 233 235 236 235 234 232 230 228 227 229 224 220 224 224 226 230 233 230 234 239 243 247 246 239 240 251 250 242 248 248 248 247 254 259 259 258 258 259 257 254 251 250 253 264 274 276
248 248 244 nan nan nan nan nan 245 245 242 241 nan nan nan nan nan 234 231 231 233 236 236 232 224 217 220 218 218 224 229 230 231 231 235 237 237 237 238 242 244 242 243 243 242 247 255 259 258 254 252 252 253 255 257 256 254 254 251 255 258 264 268
nan nan nan nan nan nan nan nan nan nan nan nan nan nan nan nan 237 236 234 230 228 229 229 226 221 217 221 230 236 240 241 244 244 240 238 239 240 240 238 236 241 249 254 255 251 249 248 254 261 265 261 257 254 247 251 253 252 250 247 254 263 265 266
nan nan nan nan nan nan nan nan nan nan nan nan nan nan nan nan nan nan nan 236 235 233 229 224 224 227 231 241 246 245 244 243 246 246 244 243 247 247 247 249 253 257 265 266 260 255 246 247 252 258 261 263 262 258 253 255 254 250 246 246 258 270 267
nan nan nan nan nan nan nan nan nan nan nan nan nan nan nan nan nan nan nan nan nan 234 232 237 239 242 245 246 247 248 247 242 242 245 244 241 240 241 241 237 246 265 267 261 265 264 261 259 257 255 254 256 256 254 254 253 252 251 246 242 239 250 271
nan nan nan nan nan nan nan nan nan nan nan nan nan nan nan nan nan nan nan nan nan nan 244 246 248 250 254 255 254 253 250 246 244 244 245 245 242 242 240 239 239 238 247 259 260 260 260 258 258 259 256 253 251 252 253 253 252 248 246 241 239 239 252
nan nan nan nan nan nan nan nan nan nan nan nan nan nan nan nan nan nan nan nan nan nan nan 254 256 257 nan 256 256 255 252 250 248 248 248 246 246 244 242 241 239 241 241 239 253 260 258 257 258 259 259 256 254 253 250 247 246 244 242 246 245 243 246
nan nan nan nan nan nan nan nan nan nan nan nan nan nan nan nan nan nan nan nan nan nan nan nan nan nan nan 261 nan nan 256 253 250 248 248 247 245 244 243 242 241 243 241 244 243 252 260 257 255 257 257 nan 254 252 249 247 nan nan nan nan 247 245 242
nan nan nan nan nan nan nan nan nan nan nan nan nan nan nan nan nan nan nan nan nan nan nan nan nan nan nan nan nan nan nan nan 255 250 247 245 246 246 244 244 244 242 241 244 247 244 nan nan 254 252 251 nan nan nan nan nan nan nan nan nan nan 242 236
nan nan nan nan nan nan nan nan nan nan nan nan nan nan nan nan nan nan nan nan nan nan nan nan nan nan nan nan nan nan nan nan nan nan nan nan 244 246 246 246 244 245 242 243 246 250 247 nan nan nan nan nan nan nan nan nan nan nan 247 246 nan nan 234
nan nan nan nan nan nan nan nan nan nan nan nan nan nan nan nan nan nan nan nan nan nan nan nan nan nan nan nan nan nan nan nan nan nan nan nan nan nan 244 244 nan nan nan nan nan nan 251 nan nan nan nan nan nan nan nan nan 251 250 247 246 243 nan 240
nan nan nan nan nan nan nan nan nan nan nan nan nan nan nan nan nan nan nan nan nan nan nan nan nan nan nan nan nan nan nan nan nan nan nan nan nan nan nan nan nan nan nan nan nan nan nan nan nan nan nan nan nan nan nan nan nan nan nan 246 246 246 245
nan nan nan nan nan nan nan nan nan nan nan nan nan nan nan nan nan nan nan nan nan nan nan nan nan nan nan nan nan nan nan nan nan nan nan nan nan nan nan nan nan nan nan nan nan nan nan nan nan nan nan nan nan nan nan nan nan nan nan 243 245 246 248
nan nan nan nan nan nan nan nan nan nan nan nan nan nan nan nan nan nan nan nan nan nan nan nan nan nan nan nan nan nan nan nan nan nan nan nan nan nan nan nan nan nan nan nan nan nan nan nan nan nan nan nan nan nan nan nan nan nan nan nan nan 249 248
nan nan nan nan nan nan nan nan nan nan nan nan nan nan nan nan nan nan nan nan nan nan nan nan nan nan nan nan nan nan nan nan nan nan nan nan nan nan nan nan nan nan nan nan nan nan nan nan nan nan nan nan nan nan nan nan nan nan nan nan nan nan nan